map of DWC home
DWC - Airport
Location
City:  Jebel Ali, Dubai, United Arab Emirates
Name:Al Maktoum International Airport
Old (Alt.):Dubai World Central International Airport
ICAO:OMDW
IATA:DWC

Details
Type:Airport (Aerodrome, Airfield)
Use:International (customs port of entry)
Latitude:2453'10"N (24.886111)
Longitude:5510'20"E (55.172222)
Variation:1.97E (WMM2015 magnetic declination)
0.05 annual change
Runways:1
Longest:14764 ft (4500 m)

Time
Time Zone:UTC+4
Local Time:

Weather
METAR:OMDW 251100Z 10021KT 8000 NSC 24/21 Q1009 TEMPO VRB15G25KT 4000 SHRA
TAF:OMDW 251100Z 2512/2618 12017KT 8000 FEW030 PROB40 2512/2515 36015KT PROB30
TEMPO 2512/2607 VRB20G40KT 3000 TSRA FEW030CB
BECMG 2601/2603 18015KT
BECMG 2614/2616 06008KT

Related Locations
Nearby:
Farthest:GMR: 11799 mi / 18989 km
Mangareva [Totegegie], Gambier Islands, PF

Find:

   beyond  
but within

Other Information
Maps:
NOTAMs:
Links:
Sources:

  
flag of United Arab Emirates
flag of Dubai
  

Sectional Chart

Flight Planning
at skyvector.com

Satellite Image

Google Maps Satellite view

 

Copyright © 2004-2017 Karl L. Swartz. All rights reserved.
The Great Circle Mapper name and logo are trademarks of the Great Circle Mapper.
All other trademarks mentioned herein belong to their respective owners.
Please see credits for attibutions and further copyright information.

  Follow gcmap on Facebook Follow gcmap on Twitter Follow gcmap on Google+ GCmap on LinkedIn

hCard Microformat

Geo Microformat